Location: Newark
(41.8083°N, 72.2500°W)
Time: 11:45:03
(UTC+00:00)

Explorer 11/Cluster Stage 4 - Pass Details

Date: 14 December 2021
Orbit: 467 x 1255 km, 28.8° (Epoch: 24 January)

Event Time Altitude Azimuth Distance (km) Brightness Sun altitude
Rises 02:59:56 0° 222° (SW) 2,518 - -61.5°
Reaches altitude 10° 03:03:28 10° 186° (S) 1,725 - -62.1°
Maximum altitude 03:04:42 11° 167° (SSE) 1,686 - -62.3°
Drops below altitude 10° 03:05:59 10° 149° (SSE) 1,810 - -62.5°
Sets 03:10:00 0° 115° (ESE) 2,884 - -63.1°
